Back to catalog

STARLINK-36796

AliveCommunicationsSSO
NORAD 67722·PAYLOAD·🇺🇸 United States

Launched Feb 11, 2026 from Vandenberg Space Force Base

Loading…

Next Passes (next 24 hours)

TLE

FreshSource: CelesTrak SupGP

Epoch: Sep 14, 2026, 15:20 UTC

1 67722C 26026B   26257.63937500  .00024584  00000+0  76315-3 0  2579
2 67722  97.2842 309.4868 0001111 107.3808  51.7357 15.33427232    18

Track STARLINK-36796 in real time with AllMySat

Download on the App Store